Regional Weather Roundup
Issued by NWS New Orleans/Baton Rouge, LA

Home | Current Version | Previous Version | Text Only | Print | Product List | Glossary On
Versions: 1 2 3 4 5 6 7 8 9 10 11 12 13 14 15 16 17 18 19 20 21 22 23 24 25 26 27 28 29 30 31 32 33 34 35 36 37 38 39 40 41 42 43 44 45 46 47 48 49 50
000
ASUS44 KLIX 041205
RWRLIX
NEW ORLEANS REGIONAL WEATHER ROUNDUP
NATIONAL WEATHER SERVICE NEW ORLEANS LA
600 AM CST WED MAR 04 2015

NOTE: "FAIR" INDICATES FEW OR NO CLOUDS BELOW 12,000 FEET WITH NO
      SIGNIFICANT WEATHER AND/OR OBSTRUCTIONS TO VISIBILITY.
      SKY/WX - SKY CONDITION AND SIGNIFICANT WEATHER.
      TMP - AIR TEMPERATURE.     DP    - DEWPOINT TEMPERATURE.
      RH  - RELATIVE HUMIDITY.   PRES  - PRESSURE.
      HI  - HEAT INDEX.          WCI   - WIND CHILL INDEX.

*  THESE STATIONS ARE NOT NWS OR FAA STATIONS AND ARE NOT UNDER
   NWS QUALITY CONTROL.

LAZ038-040-048-061>063-065>067-069-041300-
SOUTHEAST LOUISIANA

CITY           SKY/WX    TMP DP  RH WIND       PRES   REMARKS
N.O. AUDUBON     N/A     68  68 100 MISG        N/A
6HR MIN TEMP:  66; 6HR MAX TEMP:  69;

N.O. INTL ARPT LGT RAIN  68  66  93 CALM      29.98R FOG
6HR MIN TEMP:  67; 6HR MAX TEMP:  69; 6HR PCP:  0.01;

N.O. LAKEFRONT CLOUDY    67  64  90 SE3       29.99R FOG
6HR MIN TEMP:  62; 6HR MAX TEMP:  69;

SLIDELL        CLOUDY    67  67 100 CALM      29.99R
6HR MIN TEMP:  67; 6HR MAX TEMP:  69;

BATON ROUGE    CLOUDY    68  67  96 S5        29.96R
6HR MIN TEMP:  68; 6HR MAX TEMP:  69;

BOOTHVILLE     PTCLDY    64  63  96 SE5       30.00R FOG
6HR MIN TEMP:  61; 6HR MAX TEMP:  67;

BELLE CHASSE   CLOUDY    67  64  90 CALM      29.98R
6HR MIN TEMP:  63; 6HR MAX TEMP:  68;

BOGALUSA*      LGT RAIN  69  66  89 S5        30.00S
6HR MIN TEMP:  69; 6HR MAX TEMP:  70; 6HR PCP:  0.01;

GALLIANO*      MOSUNNY   65  64  96 CALM      29.98S
6HR MIN TEMP:  65; 6HR MAX TEMP:  69; 6HR PCP:  0.01;

NEW ROADS*     CLOUDY    66  65  98 SE3       29.96S FOG
6HR MIN TEMP:  66; 6HR MAX TEMP:  69;

GONZALES*      CLOUDY    68  68 100 CALM      29.96S FOG
6HR MIN TEMP:  65; 6HR MAX TEMP:  68;

HAMMOND*       CLOUDY    64  63  94 CALM      30.00R FOG
HOUMA*         FOG       63  63 100 CALM      29.97S VSB 1/2
PORT FOURCHON* MOSUNNY   70  66  88 S6        30.01R

$$

MSZ070-080>082-041300-
SOUTHERN MISSISSIPPI

CITY           SKY/WX    TMP DP  RH WIND       PRES   REMARKS
MCCOMB         LGT RAIN  67  66  97 S5        29.99R FOG
6HR MIN TEMP:  67; 6HR MAX TEMP:  67; 6HR PCP:  0.01;

GULFPORT       FOG       63  62  97 SE6       30.00R VSB 1
6HR MIN TEMP:  63; 6HR MAX TEMP:  65;

BILOXI         CLOUDY    65  65 100 S7        30.00S
6HR MIN TEMP:  65; 6HR MAX TEMP:  67; 6HR PCP: TRACE;

PASCAGOULA     CLOUDY    66  65  96 SE7       30.01R
6HR MIN TEMP:  65; 6HR MAX TEMP:  66;


$$

COASTAL OBSERVATIONS
LAKE AND NEARSHORE STATIONS

STATION/POSITION TIME  TEMP    WIND        PRES    WAVE
                       AIR SEA DIR/SP/G            HT/PER
                 (UTC) (F)     (DEG/KT/KT) (MB)    (FT/S)
PASCAGOULA       1200   65     140/  7/ 10 1015.7
WAVELAND YACHT   1200   62 60  170/  6/  7 1015.5
GRAND ISLE       1200   68 64  150/  4/  6 1015.7
SOUTHWEST PASS   1200   65 45  160/ 10/ 11 1015.6
NEW CANAL        1200   66     150/  1/  3 1015.6
SHELL BEACH      1200   65 62  130/  5/  6 1015.5

OFFSHORE STATIONS

STATION/POSITION TIME  TEMP    WIND        PRES    WAVE
                       AIR SEA DIR/SP/G            HT/PER
                 (UTC) (F)     (DEG/KT/KT) (MB)    (FT/S)
64 S DAUPHIN ISL 1150   72 71  140/ 12/ 14 1016.5    4/ 6

$$




USA.gov is the U.S. government's official web portal to all federal, state and local government web resources and services.